TimeCDT,TemperatureF,Dew PointF,Humidity,Sea Level PressureIn,VisibilityMPH,Wind Direction,Wind SpeedMPH,Gust SpeedMPH,PrecipitationIn,Events,Conditions,WindDirDegrees,DateUTC
12:52 AM,57.9,42.1,56,30.17,10.0,NNE,8.1,-,N/A,,Clear,20,2013-08-22 05:52:00
1:52 AM,57.0,41.0,55,30.17,10.0,NE,4.6,-,N/A,,Clear,40,2013-08-22 06:52:00
2:52 AM,59.0,39.9,49,30.19,10.0,Calm,Calm,-,N/A,,Overcast,0,2013-08-22 07:52:00
3:52 AM,55.0,41.0,59,30.19,10.0,Calm,Calm,-,N/A,,Partly Cloudy,0,2013-08-22 08:52:00
4:52 AM,60.1,42.1,51,30.19,10.0,East,3.5,-,N/A,,Mostly Cloudy,90,2013-08-22 09:52:00
5:52 AM,59.0,43.0,55,30.20,10.0,Calm,Calm,-,N/A,,Mostly Cloudy,0,2013-08-22 10:52:00
6:52 AM,60.1,43.0,53,30.19,10.0,East,5.8,-,N/A,,Mostly Cloudy,80,2013-08-22 11:52:00
7:52 AM,64.0,42.1,45,30.20,10.0,Calm,Calm,-,N/A,,Overcast,0,2013-08-22 12:52:00
8:52 AM,66.0,44.1,45,30.20,10.0,NNE,3.5,-,N/A,,Scattered Clouds,20,2013-08-22 13:52:00
9:52 AM,69.1,45.0,42,30.21,10.0,SSE,9.2,-,N/A,,Scattered Clouds,160,2013-08-22 14:52:00
10:52 AM,72.0,44.1,37,30.20,10.0,SSE,12.7,17.3,N/A,,Clear,160,2013-08-22 15:52:00
11:52 AM,75.0,43.0,32,30.19,10.0,SE,16.1,20.7,N/A,,Clear,130,2013-08-22 16:52:00
12:52 PM,77.0,43.0,30,30.17,10.0,SSE,11.5,-,N/A,,Clear,150,2013-08-22 17:52:00
1:52 PM,79.0,46.0,31,30.14,10.0,SE,10.4,19.6,N/A,,Clear,140,2013-08-22 18:52:00
2:52 PM,79.0,46.9,32,30.11,10.0,SSE,11.5,19.6,N/A,,Clear,150,2013-08-22 19:52:00
3:52 PM,80.1,48.9,34,30.08,10.0,SSE,15.0,-,N/A,,Clear,150,2013-08-22 20:52:00
4:52 PM,81.0,48.9,33,30.05,10.0,SE,10.4,19.6,N/A,,Clear,140,2013-08-22 21:52:00
5:52 PM,82.0,51.1,34,30.03,10.0,SE,12.7,19.6,N/A,,Clear,140,2013-08-22 22:52:00
6:52 PM,81.0,52.0,36,30.01,10.0,SE,12.7,23.0,N/A,,Clear,140,2013-08-22 23:52:00
7:52 PM,80.1,52.0,38,29.98,10.0,ESE,12.7,-,N/A,,Clear,120,2013-08-23 00:52:00
8:52 PM,75.9,53.1,45,29.98,10.0,ESE,8.1,-,N/A,,Clear,120,2013-08-23 01:52:00
9:52 PM,72.0,53.1,51,29.98,10.0,ESE,8.1,-,N/A,,Clear,110,2013-08-23 02:52:00
10:52 PM,72.0,53.1,51,29.98,10.0,SE,6.9,-,N/A,,Clear,130,2013-08-23 03:52:00
11:52 PM,71.1,53.1,53,29.97,10.0,SE,5.8,-,N/A,,Clear,140,2013-08-23 04:52:00